Location: Unspecified
(44.0704°N, 88.6889°W)
Time: 01:06:37
(UTC+02:00)

Transit 2A - Pass Details

Date: 24 June 2019
Orbit: 594 x 964 km, 66.7° (Epoch: 20 July)

Event Time Altitude Azimuth Distance (km) Brightness Sun altitude
Rises 09:42:53 0° 261° (W) 3,646 - -18.3°
Exits shadow 09:44:06 - 266° (W) 3,278 9.0 -18.2°
Reaches altitude 10° 09:46:13 10° 277° (W) 2,698 8.6 -18.0°
Maximum altitude 09:50:46 20° 323° (NW) 2,034 8.5 -17.7°
Drops below altitude 10° 09:55:13 10° 10° (N) 2,622 9.9 -17.3°
Sets 09:58:25 0° 27° (NNE) 3,513 11.2 -17.0°
